Miscellaneous Local Product
Issued by NWS Hastings, NE

Home | Current Version | Previous Version | Graphics & Text | Print | Product List | Glossary On
Versions: 1 2 3 4 5 6 7 8 9 10 11 12 13 14 15 16 17 18 19 20 21 22 23 24 25 26 27 28 29 30 31 32 33 34 35 36 37 38 39 40 41 42 43 44 45 46 47 48 49 50
000
AXUS43 KGID 311102
MISGRI

GID CWA HOURLY WEATHER ROUNDUP
NATIONAL WEATHER SERVICE HASTINGS NE
600 AM CDT MON AUG 31 2015

NOTE: "FAIR" INDICATES FEW OR NO CLOUDS BELOW 12,000 FEET WITH NO
SIGNIFICANT WEATHER AND/OR OBSTRUCTIONS TO VISIBILITY.

...SOUTH CENTRAL NEBRASKA...

CITY           SKY/WX    TMP DP  RH WIND       PRES   REMARKS
GRAND ISLAND   CLEAR     63  62  97 S7        29.94S
HASTINGS       CLEAR     62  61  96 S5        29.94S FOG
KEARNEY        MOCLDY    61  57  88 S3        29.94R VSB 1/2
ORD            CLOUDY    61  61 100 SE6       29.91F FOG
YORK           CLOUDY    63  63 100 S5        29.95R FOG
AURORA         CLEAR     64  64 100 S6        29.95R FOG
LEXINGTON      CLEAR     62  60  94 S6        29.92F
HOLDREGE       CLEAR     61  59  94 S3        29.93F
HEBRON         CLEAR     64  63  99 S3        29.95R FOG

...NEBRASKA PANHANDLE...

CITY           SKY/WX    TMP DP  RH WIND       PRES   REMARKS
CHADRON        LGT RAIN  72  54  53 W5        29.89R
ALLIANCE       MOCLDY    65  50  58 SW3       29.92R
SCOTTSBLUFF    CLOUDY    67  54  63 MISG      29.92S
SIDNEY         PTCLDY    60  48  64 W8        29.96R

...WESTERN AND NORTH CENTRAL NEBRASKA...

CITY           SKY/WX    TMP DP  RH WIND       PRES   REMARKS
VALENTINE      CLEAR     68  49  50 S14       29.83S
AINSWORTH      PTCLDY    66  58  76 S16G23    29.85F
ONEILL         CLEAR     65  64  95 S12       29.89S
BROKEN BOW     CLEAR     63  60  90 SW3       29.92F
IMPERIAL       CLEAR     58  50  75 CALM      29.92R
NORTH PLATTE   CLEAR     57  54  89 VRB3      29.92S
MCCOOK         CLEAR     59  54  83 CALM      29.91F

...EASTERN NEBRASKA...

CITY           SKY/WX    TMP DP  RH WIND       PRES   REMARKS
NORFOLK        CLEAR     65  63  93 S5        29.92F
TEKAMAH        FOG       61  60  97 CALM      29.93F VSB 1/4
COLUMBUS       CLEAR     63  57  82 CALM      29.94S
ALBION         PTCLDY    61  60  94 SE5       29.94S FOG
OMAHA EPPLEY   CLEAR     66  65  96 SE3       29.94S FOG
OFFUTT AFB     FOG       60  60 100 CALM      29.94R VSB 0
MILLARD        FOG       64  63  97 CALM      29.94S VSB 1/2
LINCOLN        FOG       63  62  97 CALM      29.95S VSB 1
NEBRASKA CITY  FOG       63  63  99 S5        29.96S VSB 1/4
BEATRICE       CLEAR     65  64  96 S5        29.95S
FALLS CITY     FOG       65  65 100 SE3       29.95S VSB 3/4

...NORTHERN KANSAS...

CITY           SKY/WX    TMP DP  RH WIND       PRES   REMARKS
GOODLAND       CLEAR     59  53  80 S14       29.92F
HILL CITY      CLEAR     59  56  89 CALM      29.93F
NORTON         SUNNY     57  54  88 SE5       29.92F
PHILLIPSBURG   FOG       61  61 100 E6        29.94S VSB 1/4
SMITH CENTER   CLEAR     59  57  94 SE7       29.94S FOG
HAYS           CLEAR     63  54  72 S6        29.94S
RUSSELL        CLEAR     63  62  97 S8        29.92F
CONCORDIA      CLEAR     62  61  96 SE5       29.94S FOG
SALINA         PTCLDY    62  60  93 SE3       29.94S
TOPEKA         FOG       66  65  96 CALM      29.96S VSB 1/4



USA.gov is the U.S. government's official web portal to all federal, state and local government web resources and services.